Regional Weather Roundup
Issued by NWS Bismarck, ND

Home | Current Version | Previous Version | Text Only | Print | Product List | Glossary On
Versions: 1 2 3 4 5 6 7 8 9 10 11 12 13 14 15 16 17 18 19 20 21 22 23 24 25 26 27 28 29 30 31 32 33 34 35 36 37 38 39 40 41 42 43 44 45 46 47 48 49 50
000
ASUS43 KBIS 271310
RWRBIS

NWR BROADCAST TEXT
NATIONAL WEATHER SERVICE BISMARCK ND
800 AM CDT TUE JUN 27 2017

NOTE: "FAIR" INDICATES FEW OR NO CLOUDS BELOW 12,000 FEET WITH NO
SIGNIFICANT WEATHER AND/OR OBSTRUCTIONS TO VISIBILITY.


CITY           SKY/WX    TMP DP  RH WIND       PRES   REMARKS
WILLISTON      CLOUDY    66  43  43 S13G21    29.66F
MINOT          CLOUDY    65  40  39 SE17G26   29.72F
MINOT AFB      PTSUNNY   65  41  40 S21G29    29.70F
BISMARCK       CLOUDY    61  42  49 S12       29.82F
DICKINSON      MOSUNNY   60  39  45 S21       29.69F
GARRISON         N/A     60  42  51 S14       29.76F
HETTINGER ARPT SUNNY     61  42  49 SE10      29.76F
JAMESTOWN      MOSUNNY   59  42  53 S14       29.90F
HAZEN          FAIR      63  39  42 SE9G21    29.76R
LINTON         FAIR     N/A N/A N/A SE22G31   29.85F
MANDAN         FAIR      59  43  55 SE16G22   29.80F
STANLEY        FAIR      61  41  48 S15       29.73F
TIOGA          FAIR      63  41  45 S28G38    29.67F
WATFORD CITY   FAIR      63  41  45 SE12      29.67F
$$

CITY           SKY/WX    TMP DP  RH WIND       PRES   REMARKS
GRAND FORKS    CLOUDY    58  46  64 S13       29.91F
GRAND FORKS AF CLOUDY    60  43  54 S13       29.91F
DEVILS LAKE    PTSUNNY   59  43  55 S21       29.86F
FARGO          SUNNY     62  43  49 S15       29.97F
CAVALIER       FAIR      59  43  55 S9        29.87S
GRAFTON        FAIR      59  46  63 S8        29.90F
GWINNER        CLOUDY    59  45  58 S14       29.97F
LANGDON        FAIR      57  46  67 S14G21    29.87F
ROLLA            N/A     55  45  67 S9        29.82F
$$

CITY           SKY/WX    TMP DP  RH WIND       PRES   REMARKS
ABERDEEN       CLOUDY    55  44  66 S14       29.97F
MOBRIDGE       MOSUNNY   63  44  50 S24G31    29.83F
BUFFALO          N/A     63  44  50 SE13      29.67F
RAPID CITY     SUNNY     65  54  67 S24G32    29.79F
GLASGOW        MOSUNNY   68  41  37 E9        29.59F
SIDNEY         CLOUDY    63  44  50 SE8       29.66F
WOLF POINT     MOSUNNY   68  42  38 NE6       29.60F
GLENDIVE       CLOUDY    65  41  41 S10       29.66F
MILES CITY     PTSUNNY   67  41  38 S9        29.64F
BAKER          MOSUNNY   59  40  49 SE12      29.71S
$$

CITY           SKY/WX    TMP DP  RH WIND       PRES   REMARKS
BILLINGS       CLOUDY    71  46  40 SW10      29.75S
GREAT FALLS    MOSUNNY   64  50  60 SW17G26   29.76R
REGINA         MOSUNNY   61  46  59 SE14G21   29.58F
ESTEVAN        PTSUNNY   64  45  48 SE16      29.62F
$$





USA.gov is the U.S. government's official web portal to all federal, state and local government web resources and services.